This is the latest recevied weather packets stored in our database for station/object N6RDS-8. If no packets are shown the sender has not sent any weather packets the latest 10 day(s).
| Time | Temp. | Humidity | Pressure | Rain* | Wind** | Luminosity | Snow |
|---|---|---|---|---|---|---|---|
| 1777493785 | 24.44° C | 18% | 1019.5 hPa | 0 mm | - | 271 W/m² | - |
| 1777493483 | 25° C | 18% | 1019.8 hPa | 0 mm | - | 289 W/m² | - |
| 1777493180 | 25° C | 19% | 1019.6 hPa | 0 mm | - | 448 W/m² | - |
| 1777492876 | 24.44° C | 19% | 1019.7 hPa | 0 mm | - | 401 W/m² | - |
| 1777492573 | 24.44° C | 19% | 1019.7 hPa | 0 mm | - | 339 W/m² | - |
| 1777492268 | 25° C | 18% | 1019.8 hPa | 0 mm | - | 313 W/m² | - |
| 1777491966 | 24.44° C | 19% | 1019.8 hPa | 0 mm | - | 423 W/m² | - |
| 1777491662 | 24.44° C | 19% | 1019.7 hPa | 0 mm | - | 245 W/m² | - |
| 1777491360 | 25° C | 18% | 1019.7 hPa | 0 mm | - | 308 W/m² | - |
| 1777491056 | 25.56° C | 18% | 1019.8 hPa | 0 mm | - | 716 W/m² | - |
| 1777490751 | 24.44° C | 19% | 1019.9 hPa | 0 mm | - | 843 W/m² | - |
| 1777490449 | 24.44° C | 17% | 1019.7 hPa | 0 mm | - | 438 W/m² | - |
| 1777490145 | 24.44° C | 19% | 1019.9 hPa | 0 mm | - | 341 W/m² | - |
| 1777489843 | 24.44° C | 18% | 1020 hPa | 0 mm | - | 288 W/m² | - |
| 1777489540 | 25° C | 19% | 1020 hPa | 0 mm | - | 413 W/m² | - |
| 1777489237 | 25° C | 18% | 1020 hPa | 0 mm | - | 818 W/m² | - |
| 1777488933 | 24.44° C | 18% | 1020.1 hPa | 0 mm | - | 626 W/m² | - |
| 1777488630 | 23.33° C | 20% | 1020.3 hPa | 0 mm | - | 324 W/m² | - |
| 1777488328 | 23.89° C | 18% | 1020 hPa | 0 mm | - | 295 W/m² | - |
| 1777488027 | 25° C | 18% | 1020.1 hPa | 0 mm | - | 398 W/m² | - |
| 1777487724 | 23.89° C | 19% | 1020.3 hPa | 0 mm | - | 593 W/m² | - |
| 1777487421 | 23.33° C | 18% | 1020.6 hPa | 0 mm | - | 321 W/m² | - |
| 1777487119 | 23.89° C | 19% | 1020.6 hPa | 0 mm | - | 366 W/m² | - |
| 1777486814 | 23.89° C | 20% | 1020.7 hPa | 0 mm | - | 332 W/m² | - |
| 1777486512 | 22.78° C | 20% | 1020.6 hPa | 0 mm | - | 622 W/m² | - |
* Rain latest hour (hover to see other rain measurements)
** Current wind speed in m/s (hover to see current wind gust speed)